TITAN 3C TRANSTAGE R/B, 2868

Orbit data source: Space-Track

TITAN 3C TRANSTAGE R/B, 2868 is space debris in GEO originally from a launch on Sat, 01 Jul 1967 UTC launched from the Air Force Eastern Test Range (AFETR). Debris objects in space refer to the collection of defunct objects orbiting the Earth. Examples of debris include non-operational satellites, rocket bodies, and fragments generated from explosions, collisions, or faulty payload assembly.

Not visible in the next 10 days
TITAN 3C TRANSTAGE R/B details
Identifier
2868, 1967-066G
Orbit
GEO
Last TLE update13 hours ago
Origin
Flag of USSAMSO (US)
ManufacturerMartin Marietta
MissionSpacecraft
Bus & MotorTRANSTAGE, Unknown motor
Mass2,176 kg wet, 2,050 kg dry
Launch date (UTC)
1967-07-01 (57 years ago)
Launch vehicleUnknown
Launch site
Air Force Eastern Test Range (AFETR)
Object type
Payload
Rocket body
Debris
Shape & HBRCyl + 2 Nozzle, 4.6 m
Radar Cross Section14.974 m², Large (>1 m²)

Expand to show TLE details & history

TLE from 13 hours ago
0 TITAN 3C TRANSTAGE R/B
1 02868U 67066G   24355.96104529 -.00000049  00000-0  00000-0 0  9998
2 02868   1.1610 125.8666 0083759 138.0819 183.2227  1.08907218122412
Epoch: 2024-12-20T23:03Z
Definitive object data (Epoch: 2024-12-20T23:03:54.313Z)
Latitude-0.70828°
Longitude11.13275°
Altitude33,861.702 km
Speed3.134 km/s
True Right ascension05h 48m 30s
True Declination0° 42' 27"
Sunlit
Object was in daylight at TLE epoch
Visualization TLE readout
Latitude-0.05315°
Longitude-128.28077°
Altitude33,282.748 km
Speed3.18 km/s
Apparent Right ascension20h 49m 26s
Apparent Declination-5° 25' 40"
Sunlit
Object is in daylight
Visualization observer readout
Local Sidereal Time11:33:16
Azimuth57.87° ENE
Elevation-39.591°
Doppler factor1
Orbital elements
Apogee altitude33,862.557 km
Perigee altitude33,194.052 km
Semi-major axis39,906.442 km
Eccentricity0.0083759
Inclination1.161°
RAAN125.8666°
Arg. of periapsis138.0819°
True anomaly183.1693°
Mean anomaly183.2227°
Eccentric anomaly183.19594°
Mean motion0.27226 °/min
BSTARUnknown
Orbital period1322.28 mins
Loading historical data...
2868 neighbors
Authenticating...
Loading maneuver chart data...
Loading historical data...
Loading historical data...
Loading historical data...
Loading historical data...
Loading historical data...
Loading historical data...
Loading historical data...

TITAN 3C TRANSTAGE R/B Visibility forecast

Observer location: undefined°, undefined

TITAN 3C TRANSTAGE R/B is not visible in the next 10 days
Span
Click to sort rows by Start time (UTC) header in descending order
Start Az.
Max El. time (UTC)
Max El. Az.
Max El.
End time (UTC)
End Az.
|